This demonstration page uses our WeatherBlox Daily Observations layout. Learn more.

Left ArrowRight Arrow

39.01783, -85.05884

Hourly Observations for September 17, 2017

Temp ( °F °C ) Dew Point ( °F °C ) Humidity (%) Winds ( mph kmh ) Pressure ( in mb ) Visibility ( mi km ) Precip ( " mm )
12:52 am 00:52 Clear 68 20 63 17.2 84 84 Calm 30.11 1020 10 16 0.00 0.00
1:52 am 01:52 Clear 65 18.3 62 16.7 90 90 Calm 30.11 1020 10 16 0.00 0.00
2:52 am 02:52 Clear 64 17.8 63 17.2 96 96 Calm 30.10 1019 9 14 0.00 0.00
3:52 am 03:52 Clear 65 18.3 63 17.2 93 93 Calm 30.08 1019 10 16 0.00 0.00
4:52 am 04:52 Clear 64 17.8 63 17.2 96 96 Calm 30.07 1018 9 14 0.00 0.00
5:52 am 05:52 Clear 64 17.8 63 17.2 96 96 Calm 30.09 1019 9 14 0.00 0.00
6:52 am 06:52 Mostly Clear 63 17.2 62 16.7 97 97 Calm 30.11 1020 9 14 0.00 0.00
7:52 am 07:52 Partly Cloudy with Mist and Fog 64 17.8 63 17.2 96 96 Calm 30.13 1020 6 10 0.00 0.00
8:52 am 08:52 Mostly Sunny 67 19.4 65 18.3 93 93 Calm 30.13 1020 8 13 0.00 0.00
9:52 am 09:52 Sunny 72 22.2 66 18.9 82 82 SE 5 7 30.15 1021 10 16 0.00 0.00
10:52 am 10:52 Sunny 76 24.4 68 20 77 77 ESE 5 7 30.14 1021 10 16 0.00 0.00
11:52 am 11:52 Mostly Sunny 79 26.1 67 19.4 67 67 ESE 3 6 30.14 1021 10 16 0.00 0.00
12:52 pm 12:52 Mostly Sunny 80 26.7 67 19.4 64 64 Calm 30.11 1020 10 16 0.00 0.00
1:52 pm 13:52 Mostly Cloudy 81 27.2 67 19.4 62 62 Calm 30.10 1019 10 16 0.00 0.00
2:52 pm 14:52 Mostly Cloudy 84 28.9 65 18.3 53 53 Calm 30.07 1018 10 16 0.00 0.00
3:52 pm 15:52 Mostly Cloudy 82 27.8 66 18.9 58 58 SW 5 7 30.06 1018 10 16 0.00 0.00
4:52 pm 16:52 Mostly Cloudy 84 28.9 64 17.8 51 51 Calm 30.05 1018 10 16 0.00 0.00
5:52 pm 17:52 Partly Cloudy 83 28.3 64 17.8 53 53 W 3 6 30.05 1018 10 16 0.00 0.00
6:52 pm 18:52 Mostly Sunny 82 27.8 63 17.2 53 53 W 3 6 30.04 1017 10 16 0.00 0.00
7:52 pm 19:52 Mostly Clear 77 25 65 18.3 66 66 WSW 3 6 30.05 1018 10 16 0.00 0.00
8:52 pm 20:52 Clear 74 23.3 66 18.9 76 76 Calm 30.06 1018 10 16 0.00 0.00
9:52 pm 21:52 Clear 72 22.2 66 18.9 82 82 Calm 30.07 1018 10 16 0.00 0.00
10:52 pm 22:52 Mostly Clear 69 20.6 66 18.9 90 90 Calm 30.07 1018 10 16 0.00 0.00
11:52 pm 23:52 Mostly Cloudy 69 20.6 65 18.3 87 87 Calm 30.07 1018 10 16 0.00 0.00

Powered by AerisWeather